Location: Newark
(49.1939°N, 0.8136°E)
Time: 23:23:34
(UTC+00:00)

Envisat - Pass Details

Date: 20 November 2019
Orbit: 764 x 766 km, 98.1° (Epoch: 09 December)

Event Time Altitude Azimuth Distance (km) Brightness Sun altitude
Rises 05:21:45 0° 30° (NNE) 3,243 6.5 -18.0°
Reaches altitude 10° 05:25:21 10° 57° (ENE) 2,310 6.1 -17.4°
Maximum altitude 05:27:49 14° 86° (E) 2,067 6.3 -17.0°
Drops below altitude 10° 05:30:17 10° 115° (ESE) 2,301 6.7 -16.6°
Sets 05:33:51 0° 142° (SE) 3,220 7.0 -16.1°
